User: anonymous   Login
Location: Unspecified
(0.0000°N, 0.0000°E)
Time: 01:48:33
(UTC+00:00)
Language:

STSS DEMO 2 (USA 209) - Orbit

View from above orbital plane
View from above orbital plane
View from above satellite
View from above satellite

Ground track
Ground track

The orbit data is extracted from the following two-line orbital elements,

1 35938U 09052B   15078.84324042 0.00000000  00000-0  00000-0 0    05
2 35938  57.9896  81.7047 0018652 174.0874 185.9126 12.79145085    08
Epoch (UTC): 19 March 2015 20:14:15
Eccentricity: 0.0018652
inclination: 57.9896°
perigee height: 1330 km
apogee height: 1359 km
right ascension of ascending node: 81.7047°
argument of perigee: 174.0874°
revolutions per day: 12.79145085
mean anomaly at epoch: 185.9126°
orbit number at epoch: 0

The dashed part of the orbit path shows where the satellite is in the earth's shadow,  

DLR